GSAT-8 (GAGAN/PRN 127)

Last updated on Jan. 25, 2020, 4:44 a.m. UTC

1 37605U 11022A   20024.77753472  .00000076  00000-0  00000+0 0  9999
2 37605   0.0174  75.3419 0007824 201.6401 181.6076  1.00271429 31828
UTC
Height (km)
Latitude
Longitude
Inclination
Orbital Period
UTC large
Height (km)
Speed (km/s)
/
Latitude / Longitude
Inclination (degrees)
Orbital Period (minutes)
Azimuth
Elevation
Range (km)
Doppler Factor
iOS Compass Heading
iOS Angle

Next 30 passes for location: Hong Kong

Rise time Rise Azimuth (degrees) Set time Set Azimuth (degrees) Duration Max altitude (degrees)

No matching passes for this satellites